Regional Weather Roundup
Issued by NWS

Home | Current Version | Previous Version | Graphics & Text | Print | Product List | Glossary On
Versions: 1 2 3 4 5 6 7 8 9 10 11 12 13 14 15 16 17 18 19 20 21 22 23 24 25 26 27 28 29 30 31 32 33 34 35 36 37 38 39 40 41 42 43 44 45 46 47 48 49 50
597
ASUS43 KIND 140659
RWRIN

WEATHER ROUNDUP FOR INDIANA
NATIONAL WEATHER SERVICE INDIANAPOLIS IN
200 AM EST SUN FEB 14 2016

NOTE: "FAIR" INDICATES FEW OR NO CLOUDS BELOW 12,000 FEET WITH NO
SIGNIFICANT WEATHER AND/OR OBSTRUCTIONS TO VISIBILITY.

* - STATION DOES NOT REPORT WEATHER SUCH AS PRECIPITATION OR FOG.

+ - STATION NOT QUALITY CONTROLLED BY THE NATIONAL WEATHER SERVICE.
    USE DATA WITH CAUTION...ESPECIALLY DEWPOINT AND RELATIVE
    HUMIDITY OBSERVATIONS.

INZ001>003-010>013-019-020-140800-
NORTHWEST INDIANA

CITY           SKY/WX    TMP DP  RH WIND       PRES   REMARKS
RENSSELAER +   CLOUDY    14   0  52 E9        30.47S WCI   2

$$

LMZ046-743>745-140800-
SOUTHERN LAKE MICHIGAN

STATION/POSITION TIME  TEMP    WIND        PRES    WAVE
                       AIR SEA DIR/SP/G            HT
                 (UTC) (F)     (DEG/KT/KT) (MB)    (FT)
BURNS HARBOR     0600   11     170/  6/  7 1032.2F
MICHIGAN CITY    0600    9     130/  7/  9   N/A

$$

INZ004-005-014>016-021>024-140800-
NORTH CENTRAL INDIANA

CITY           SKY/WX    TMP DP  RH WIND       PRES   REMARKS
GOSHEN         CLOUDY    10   2  69 SW3       30.46F
SOUTH BEND     CLOUDY     7   1  76 S3        30.46F

$$

INZ006>009-017-018-025>027-140800-
NORTHEAST INDIANA

CITY           SKY/WX    TMP DP  RH WIND       PRES   REMARKS
ANGOLA *+      CLOUDY     9   5  85 CALM      30.44S
FORT WAYNE     CLOUDY     7   0  73 CALM      30.48F

$$

INZ028-029-035-036-043>045-051>053-140800-
WEST CENTRAL INDIANA

CITY           SKY/WX    TMP DP  RH WIND       PRES   REMARKS
CRAWFORDSVL +  CLOUDY    13   1  57 CALM      30.44F
GREENCASTLE +  CLOUDY    18  -4  38 E6        30.44S WCI   9
LAFAYETTE      CLOUDY    12   3  67 E9        30.47F WCI   0
TERRE HAUTE    CLOUDY    17   3  54 E6        30.46S WCI   9

$$

INZ030>032-037>040-046>048-054>057-064-065-140800-
CENTRAL INDIANA

CITY           SKY/WX    TMP DP  RH WIND       PRES   REMARKS
INDIANAPOLIS   CLOUDY    15  -1  49 E9        30.43F WCI   3
-EAGLE CREEK   PTCLDY    13   0  56 E8        30.45S WCI   2
KOKOMO *+      CLOUDY     9   1  72 E6        30.47S WCI  -1
MT COMFORT *+  CLOUDY    10   1  67 E9        30.46S WCI  -2
SHELBYVILLE    PTCLDY    13   2  61 E10       30.45F WCI   0

$$

INZ033-034-041-042-049-050-058-059-140800-
EAST CENTRAL INDIANA

CITY           SKY/WX    TMP DP  RH WIND       PRES   REMARKS
MUNCIE         CLOUDY     7  -1  70 CALM      30.47S

$$

INZ060-061-067>069-081>083-085>088-140800-
SOUTHWEST INDIANA

CITY           SKY/WX    TMP DP  RH WIND       PRES   REMARKS
EVANSVILLE     CLOUDY    23   4  44 E6        30.45F WCI  16
HUNTINGBURG *+ CLOUDY    19   1  45 E7        30.45F WCI  10

$$

INZ062-063-066-070>080-084-089>092-140800-
SOUTH CENTRAL AND SOUTHEAST INDIANA

CITY           SKY/WX    TMP DP  RH WIND       PRES   REMARKS
BLOOMINGTON    PTCLDY    17   1  49 E7        30.44R WCI   8
MADISON *+     CLOUDY    18   3  53 E5        30.46F WCI  11

$$





USA.gov is the U.S. government's official web portal to all federal, state and local government web resources and services.